Starlink 11564

operational
NORAD ID: 62913 Int'l Des: 2025-027 Owner: SPXS Country: US Constellation: starlink
LEOCIRCULAR

Über Starlink 11564

Beschreibung wird geladen...

Live-Position

3D-Globus wird geladen...

Nächste Überflüge

Höhenverlauf

Altitude vs Time

uPlot chart will show altitude changes over time

Zweizeiliger Elementsatz

1 62913U 25027G 25351.43596824 .00209796 00000-0 15958-2 0 9997
2 62913 43.0004 123.6514 0003929 292.5191 67.5261 15.70861790 50217
Epoch: 17. Dez. 2025 • Age: 15 hours

Aktueller Status

Höhe 358.0 km
Geschwindigkeit 7.70 km/s
Subsatellitenpunkt -10.62°S, 150.74°W
Startdatum 8. Feb. 2025
Alter 0.8 years
Typ internet

Technische Details

Klassifizierung Payload
Masse 960.00 kg
Trockenmasse 910.00 kg
Gesamtmasse 960.00 kg
Länge 0.30 m
Durchmesser 4.10 m
Spannweite 29.00 m
Form Box + pan
Hersteller SPXS
Bus-Typ Starlink V2MD
Phasenstatus In Orbit
Besitzer/Staat SPXS/US

Große Konstellationen

Loading constellations...